| time (UTC) | temp F | wind direction | speed MPH | gust MPH | rain 1hr in | rain 24hr in | rain mn in | humidity % | barometer mb |
| 20260902140904 | 85 | 245 | 0.0 | 0.0 | 0.00 | 0.00 | 0.00 | 57 | 1011.6 |
| 20260902140404 | 85 | 245 | 0.0 | 0.0 | 0.00 | 0.00 | 0.00 | 58 | 1011.6 |
| 20260902135903 | 84 | 245 | 0.0 | 0.0 | 0.00 | 0.00 | 0.00 | 59 | 1011.5 |
| 20260902135404 | 83 | 245 | 0.0 | 0.0 | 0.00 | 0.00 | 0.00 | 60 | 1011.5 |
| 20260902134904 | 83 | 245 | 0.0 | 0.0 | 0.00 | 0.00 | 0.00 | 61 | 1011.5 |
| 20260902134404 | 82 | 245 | 0.0 | 0.0 | 0.00 | 0.00 | 0.00 | 62 | 1011.4 |
| 20260902133904 | 82 | 245 | 0.0 | 0.0 | 0.00 | 0.00 | 0.00 | 63 | 1011.4 |
| 20260902133404 | 81 | 245 | 0.0 | 0.0 | 0.00 | 0.00 | 0.00 | 64 | 1011.4 |
| 20260902132904 | 81 | 245 | 0.0 | 0.0 | 0.00 | 0.00 | 0.00 | 64 | 1011.4 |
| 20260902132404 | 80 | 245 | 0.0 | 0.0 | 0.00 | 0.00 | 0.00 | 65 | 1011.4 |
| 20260902131904 | 80 | 245 | 0.0 | 0.0 | 0.00 | 0.00 | 0.00 | 65 | 1011.4 |
| 20260902131403 | 80 | 245 | 0.0 | 0.0 | 0.00 | 0.00 | 0.00 | 65 | 1011.3 |
| 20260902130404 | 80 | 245 | 0.0 | 0.0 | 0.00 | 0.00 | 0.00 | 65 | 1011.3 |
| 20260902125904 | 80 | 245 | 0.0 | 0.0 | 0.00 | 0.00 | 0.00 | 64 | 1011.0 |
| 20260902125404 | 80 | 245 | 0.0 | 0.0 | 0.00 | 0.00 | 0.00 | 64 | 1010.9 |
| 20260902124904 | 80 | 245 | 0.0 | 0.0 | 0.00 | 0.00 | 0.00 | 64 | 1010.8 |
| 20260902124404 | 80 | 245 | 0.0 | 0.0 | 0.00 | 0.00 | 0.00 | 64 | 1010.8 |
| 20260902123903 | 80 | 245 | 0.0 | 0.0 | 0.00 | 0.00 | 0.00 | 63 | 1010.8 |
| 20260902123404 | 80 | 245 | 0.0 | 0.0 | 0.00 | 0.00 | 0.00 | 63 | 1010.8 |
| 20260902122903 | 80 | 245 | 0.0 | 0.0 | 0.00 | 0.00 | 0.00 | 63 | 1010.7 |
| 20260902122403 | 81 | 245 | 0.0 | 0.0 | 0.00 | 0.00 | 0.00 | 62 | 1010.7 |
| 20260902121904 | 81 | 245 | 0.0 | 0.0 | 0.00 | 0.00 | 0.00 | 62 | 1010.7 |
| 20260902121403 | 81 | 245 | 0.0 | 0.0 | 0.00 | 0.00 | 0.00 | 62 | 1010.7 |
| 20260902120903 | 81 | 245 | 0.0 | 0.0 | 0.00 | 0.00 | 0.00 | 61 | 1010.6 |
| 20260902120403 | 81 | 245 | 0.0 | 0.0 | 0.00 | 0.00 | 0.00 | 61 | 1010.5 |
| 20260902115904 | 81 | 245 | 0.0 | 0.0 | 0.00 | 0.00 | 0.00 | 61 | 1010.4 |
| 20260902115404 | 81 | 245 | 0.0 | 0.0 | 0.00 | 0.00 | 0.00 | 61 | 1010.4 |
| 20260902114904 | 81 | 245 | 0.0 | 0.0 | 0.00 | 0.00 | 0.00 | 61 | 1010.3 |
| 20260902114403 | 81 | 245 | 0.0 | 0.0 | 0.00 | 0.00 | 0.00 | 61 | 1010.3 |
| 20260902113903 | 82 | 245 | 0.0 | 0.0 | 0.00 | 0.00 | 0.00 | 61 | 1010.3 |
| 20260902113404 | 82 | 245 | 0.0 | 0.0 | 0.00 | 0.00 | 0.00 | 61 | 1010.3 |
| 20260902112904 | 82 | 245 | 0.0 | 0.0 | 0.00 | 0.00 | 0.00 | 60 | 1010.3 |
| 20260902111904 | 82 | 245 | 0.0 | 0.0 | 0.00 | 0.00 | 0.00 | 60 | 1010.2 |
| 20260902111404 | 82 | 245 | 0.0 | 0.0 | 0.00 | 0.00 | 0.00 | 59 | 1010.1 |
| 20260902104404 | 83 | 245 | 0.0 | 0.0 | 0.00 | 0.00 | 0.00 | 57 | 1010.2 |
| 20260902103404 | 84 | 245 | 0.0 | 0.0 | 0.00 | 0.00 | 0.00 | 56 | 1010.2 |
| 20260902102903 | 84 | 245 | 0.0 | 0.0 | 0.00 | 0.00 | 0.00 | 56 | 1010.2 |
| 20260902102404 | 84 | 245 | 0.0 | 0.0 | 0.00 | 0.00 | 0.00 | 56 | 1010.2 |
| 20260902101904 | 84 | 245 | 0.0 | 0.0 | 0.00 | 0.00 | 0.00 | 55 | 1010.3 |
| 20260902101404 | 84 | 245 | 0.0 | 0.0 | 0.00 | 0.00 | 0.00 | 55 | 1010.3 |
| 20260902100903 | 85 | 245 | 0.0 | 0.0 | 0.00 | 0.00 | 0.00 | 54 | 1010.2 |
| 20260902100404 | 85 | 245 | 0.0 | 0.0 | 0.00 | 0.00 | 0.00 | 54 | 1010.2 |
| 20260902095904 | 85 | 245 | 0.0 | 0.0 | 0.00 | 0.00 | 0.00 | 53 | 1010.3 |
| 20260902095404 | 85 | 245 | 0.0 | 0.0 | 0.00 | 0.00 | 0.00 | 51 | 1010.3 |
| 20260902094904 | 85 | 245 | 0.0 | 0.0 | 0.00 | 0.00 | 0.00 | 51 | 1010.2 |
| 20260902094404 | 85 | 245 | 0.0 | 0.0 | 0.00 | 0.00 | 0.00 | 50 | 1010.2 |
| 20260902093903 | 86 | 246 | 0.0 | 0.0 | 0.00 | 0.00 | 0.00 | 50 | 1010.1 |
| 20260902093404 | 86 | 245 | 0.0 | 0.0 | 0.00 | 0.00 | 0.00 | 49 | 1010.1 |
| 20260902092904 | 86 | 245 | 0.0 | 0.0 | 0.00 | 0.00 | 0.00 | 49 | 1010.0 |
| 20260902092404 | 86 | 245 | 0.0 | 0.0 | 0.00 | 0.00 | 0.00 | 48 | 1010.0 |
| 20260902091904 | 87 | 245 | 0.0 | 0.0 | 0.00 | 0.00 | 0.00 | 48 | 1010.0 |
| 20260902091404 | 87 | 245 | 0.0 | 0.0 | 0.00 | 0.00 | 0.00 | 48 | 1010.1 |
| 20260902090904 | 87 | 245 | 0.0 | 0.0 | 0.00 | 0.00 | 0.00 | 47 | 1010.0 |
| 20260902090404 | 88 | 245 | 0.0 | 0.0 | 0.00 | 0.00 | 0.00 | 47 | 1009.9 |
| 20260902085904 | 88 | 245 | 0.0 | 0.0 | 0.00 | 0.00 | 0.00 | 47 | 1009.9 |
| 20260902085404 | 88 | 245 | 0.0 | 0.0 | 0.00 | 0.00 | 0.00 | 46 | 1009.9 |
| 20260902084904 | 88 | 245 | 0.0 | 0.0 | 0.00 | 0.00 | 0.00 | 46 | 1009.9 |
| 20260902084404 | 89 | 245 | 0.0 | 0.0 | 0.00 | 0.00 | 0.00 | 46 | 1010.0 |
| 20260902083404 | 89 | 245 | 0.0 | 0.0 | 0.00 | 0.00 | 0.00 | 46 | 1010.0 |
| 20260902082404 | 89 | 245 | 0.0 | 0.0 | 0.00 | 0.00 | 0.00 | 46 | 1010.0 |
| 20260902081904 | 89 | 245 | 0.0 | 0.0 | 0.00 | 0.00 | 0.00 | 46 | 1010.0 |
| 20260902080404 | 89 | 245 | 0.0 | 0.0 | 0.00 | 0.00 | 0.00 | 46 | 1010.0 |
| 20260902075904 | 89 | 245 | 0.0 | 0.0 | 0.00 | 0.00 | 0.00 | 46 | 1010.1 |
| 20260902075404 | 89 | 245 | 0.0 | 0.0 | 0.00 | 0.00 | 0.00 | 45 | 1010.1 |
| 20260902074904 | 89 | 245 | 0.0 | 0.0 | 0.00 | 0.00 | 0.00 | 45 | 1010.0 |
| 20260902074403 | 90 | 245 | 0.0 | 0.0 | 0.00 | 0.00 | 0.00 | 45 | 1010.0 |
| 20260902073904 | 90 | 245 | 0.0 | 0.0 | 0.00 | 0.00 | 0.00 | 45 | 1009.9 |
| 20260902073404 | 89 | 245 | 0.0 | 0.0 | 0.00 | 0.00 | 0.00 | 45 | 1009.8 |
| 20260902072904 | 89 | 245 | 0.0 | 0.0 | 0.00 | 0.00 | 0.00 | 44 | 1010.0 |
| 20260902072405 | 89 | 245 | 0.0 | 0.0 | 0.00 | 0.00 | 0.00 | 42 | 1010.0 |
| 20260902071903 | 89 | 245 | 0.0 | 0.0 | 0.00 | 0.00 | 0.00 | 41 | 1009.9 |
| 20260902071404 | 88 | 249 | 0.0 | 0.0 | 0.00 | 0.00 | 0.00 | 42 | 1009.9 |
| 20260902070904 | 88 | 249 | 0.0 | 0.0 | 0.00 | 0.00 | 0.00 | 46 | 1009.8 |
| 20260902070404 | 88 | 250 | 0.0 | 0.0 | 0.00 | 0.00 | 0.00 | 48 | 1009.7 |
| 20260902065904 | 87 | 250 | 0.0 | 1.0 | 0.00 | 0.00 | 0.00 | 50 | 1009.9 |
| 20260902064904 | 87 | 250 | 0.0 | 0.0 | 0.00 | 0.00 | 0.00 | 49 | 1009.9 |
| 20260902064403 | 87 | 250 | 0.0 | 0.0 | 0.00 | 0.00 | 0.00 | 48 | 1009.7 |
| 20260902063904 | 87 | 250 | 0.0 | 0.0 | 0.00 | 0.00 | 0.00 | 48 | 1009.7 |
| 20260902063404 | 88 | 250 | 0.0 | 0.0 | 0.00 | 0.00 | 0.00 | 48 | 1009.6 |
| 20260902062904 | 88 | 250 | 0.0 | 0.0 | 0.00 | 0.00 | 0.00 | 48 | 1009.7 |
| 20260902062404 | 88 | 250 | 0.0 | 0.0 | 0.00 | 0.00 | 0.00 | 48 | 1009.6 |
| 20260902061904 | 88 | 250 | 0.0 | 0.0 | 0.00 | 0.00 | 0.00 | 48 | 1009.6 |
| 20260902060904 | 88 | 250 | 0.0 | 0.0 | 0.00 | 0.00 | 0.00 | 47 | 1009.7 |
| 20260902060404 | 88 | 250 | 0.0 | 0.0 | 0.00 | 0.00 | 0.00 | 47 | 1009.8 |
| 20260902055904 | 88 | 250 | 0.0 | 0.0 | 0.00 | 0.00 | 0.00 | 47 | 1009.9 |
| 20260902055404 | 88 | 250 | 0.0 | 0.0 | 0.00 | 0.00 | 0.00 | 46 | 1009.9 |
| 20260902054903 | 89 | 250 | 0.0 | 0.0 | 0.00 | 0.00 | 0.00 | 46 | 1009.8 |
| 20260902054404 | 89 | 250 | 0.0 | 0.0 | 0.00 | 0.00 | 0.00 | 46 | 1009.8 |
| 20260902053904 | 89 | 250 | 0.0 | 0.0 | 0.00 | 0.00 | 0.00 | 45 | 1009.7 |
| 20260902053403 | 89 | 250 | 0.0 | 0.0 | 0.00 | 0.00 | 0.00 | 45 | 1009.7 |
| 20260902052904 | 89 | 250 | 0.0 | 0.0 | 0.00 | 0.00 | 0.00 | 45 | 1009.8 |
| 20260902052404 | 89 | 250 | 0.0 | 0.0 | 0.00 | 0.00 | 0.00 | 45 | 1009.8 |
| 20260902051904 | 89 | 250 | 0.0 | 0.0 | 0.00 | 0.00 | 0.00 | 45 | 1009.8 |
| 20260902050903 | 89 | 250 | 0.0 | 0.0 | 0.00 | 0.00 | 0.00 | 44 | 1009.8 |
| 20260902050404 | 89 | 250 | 0.0 | 0.0 | 0.00 | 0.00 | 0.00 | 44 | 1009.7 |
| 20260902045904 | 90 | 250 | 0.0 | 0.0 | 0.00 | 0.00 | 0.00 | 44 | 1009.8 |
| 20260902045404 | 90 | 250 | 0.0 | 0.0 | 0.00 | 0.00 | 0.00 | 44 | 1009.8 |
| 20260902044903 | 90 | 250 | 0.0 | 0.0 | 0.00 | 0.00 | 0.00 | 44 | 1009.8 |
| 20260902044404 | 90 | 250 | 0.0 | 0.0 | 0.00 | 0.00 | 0.00 | 44 | 1009.8 |
| 20260902043904 | 90 | 250 | 0.0 | 0.0 | 0.00 | 0.00 | 0.00 | 44 | 1009.7 |
| 20260902043404 | 90 | 250 | 0.0 | 0.0 | 0.00 | 0.00 | 0.00 | 43 | 1009.6 |
| 20260902042903 | 90 | 250 | 0.0 | 0.0 | 0.00 | 0.00 | 0.00 | 43 | 1009.6 |
| 20260902042404 | 90 | 250 | 0.0 | 0.0 | 0.00 | 0.00 | 0.00 | 43 | 1009.5 |
| 20260902041404 | 90 | 250 | 0.0 | 0.0 | 0.00 | 0.00 | 0.00 | 43 | 1009.5 |
| 20260902040904 | 90 | 250 | 0.0 | 0.0 | 0.00 | 0.00 | 0.00 | 43 | 1009.4 |
| 20260902040404 | 90 | 250 | 0.0 | 0.0 | 0.00 | 0.00 | 0.00 | 43 | 1009.3 |
| 20260902035904 | 90 | 250 | 0.0 | 0.0 | 0.00 | 0.00 | 0.00 | 43 | 1009.4 |
| 20260902035403 | 91 | 250 | 0.0 | 0.0 | 0.00 | 0.00 | 0.00 | 42 | 1009.3 |
| 20260902034903 | 91 | 250 | 0.0 | 0.0 | 0.00 | 0.00 | 0.00 | 42 | 1009.2 |
| 20260902034404 | 91 | 250 | 0.0 | 0.0 | 0.00 | 0.00 | 0.00 | 42 | 1009.2 |
| 20260902033904 | 91 | 250 | 0.0 | 0.0 | 0.00 | 0.00 | 0.00 | 41 | 1009.2 |
| 20260902032904 | 91 | 250 | 0.0 | 0.0 | 0.00 | 0.00 | 0.00 | 41 | 1008.9 |
| 20260902032404 | 91 | 250 | 0.0 | 0.0 | 0.00 | 0.00 | 0.00 | 41 | 1008.8 |
| 20260902031904 | 92 | 250 | 0.0 | 0.0 | 0.00 | 0.00 | 0.00 | 41 | 1008.6 |
| 20260902031404 | 91 | 250 | 0.0 | 0.0 | 0.00 | 0.00 | 0.00 | 41 | 1008.6 |
| 20260902030904 | 91 | 250 | 0.0 | 0.0 | 0.00 | 0.00 | 0.00 | 41 | 1008.6 |
| 20260902030404 | 91 | 250 | 0.0 | 0.0 | 0.00 | 0.00 | 0.00 | 40 | 1008.5 |
| 20260902025903 | 91 | 250 | 0.0 | 0.0 | 0.00 | 0.00 | 0.00 | 40 | 1008.5 |
| 20260902025404 | 91 | 251 | 0.0 | 0.0 | 0.00 | 0.00 | 0.00 | 40 | 1008.5 |
| 20260902024904 | 91 | 250 | 0.0 | 0.0 | 0.00 | 0.00 | 0.00 | 40 | 1008.4 |
| 20260902024403 | 92 | 250 | 0.0 | 0.0 | 0.00 | 0.00 | 0.00 | 40 | 1008.3 |
| 20260902023903 | 92 | 250 | 0.0 | 0.0 | 0.00 | 0.00 | 0.00 | 39 | 1008.3 |
| 20260902022904 | 92 | 250 | 0.0 | 0.0 | 0.00 | 0.00 | 0.00 | 39 | 1008.3 |
| 20260902022404 | 92 | 250 | 0.0 | 0.0 | 0.00 | 0.00 | 0.00 | 38 | 1008.2 |
| 20260902021903 | 92 | 250 | 0.0 | 0.0 | 0.00 | 0.00 | 0.00 | 38 | 1008.3 |
| 20260902020903 | 93 | 250 | 0.0 | 0.0 | 0.00 | 0.00 | 0.00 | 38 | 1008.2 |
| 20260902020404 | 93 | 250 | 0.0 | 0.0 | 0.00 | 0.00 | 0.00 | 37 | 1008.2 |
| 20260902015904 | 94 | 250 | 0.0 | 0.0 | 0.00 | 0.00 | 0.00 | 36 | 1008.3 |
| 20260902015404 | 94 | 250 | 0.0 | 0.0 | 0.00 | 0.00 | 0.00 | 37 | 1008.2 |
| 20260902014404 | 94 | 250 | 0.0 | 0.0 | 0.00 | 0.00 | 0.00 | 36 | 1008.2 |
| 20260902013904 | 95 | 250 | 0.0 | 0.0 | 0.00 | 0.00 | 0.00 | 36 | 1008.2 |
| 20260902013403 | 95 | 250 | 0.0 | 0.0 | 0.00 | 0.00 | 0.00 | 35 | 1008.2 |
| 20260902012403 | 96 | 250 | 0.0 | 0.0 | 0.00 | 0.00 | 0.00 | 35 | 1008.0 |
| 20260902011904 | 96 | 251 | 0.0 | 0.0 | 0.00 | 0.00 | 0.00 | 34 | 1008.1 |
| 20260902011404 | 96 | 251 | 0.0 | 0.0 | 0.00 | 0.00 | 0.00 | 34 | 1008.2 |
| 20260902010903 | 96 | 250 | 0.0 | 0.0 | 0.00 | 0.00 | 0.00 | 35 | 1008.2 |
| 20260902010404 | 96 | 251 | 0.0 | 0.0 | 0.00 | 0.00 | 0.00 | 36 | 1008.2 |
| 20260902005904 | 96 | 178 | 0.0 | 0.0 | 0.00 | 0.00 | 0.00 | 36 | 1008.4 |
| 20260902004904 | 96 | 178 | 1.0 | 7.0 | 0.00 | 0.00 | 0.00 | 37 | 1008.4 |
| 20260902004403 | 96 | 218 | 0.0 | 0.0 | 0.00 | 0.00 | 0.00 | 38 | 1008.3 |
| 20260902003903 | 97 | 218 | 0.0 | 0.0 | 0.00 | 0.00 | 0.00 | 38 | 1008.5 |
| 20260902003404 | 97 | 218 | 0.0 | 0.0 | 0.00 | 0.00 | 0.00 | 38 | 1008.5 |
| 20260902002403 | 97 | 218 | 0.0 | 0.0 | 0.00 | 0.00 | 0.00 | 38 | 1008.5 |
| 20260902001403 | 97 | 218 | 0.0 | 0.0 | 0.00 | 0.00 | 0.00 | 38 | 1008.6 |
| 20260902000904 | 97 | 218 | 0.0 | 0.0 | 0.00 | 0.00 | 0.00 | 38 | 1008.7 |
| 20260902000403 | 97 | 218 | 0.0 | 0.0 | 0.00 | 0.00 | 0.00 | 38 | 1008.7 |
| 20260901235903 | 97 | 218 | 0.0 | 0.0 | 0.00 | 0.00 | 0.00 | 37 | 1008.6 |
| 20260901234904 | 96 | 218 | 0.0 | 0.0 | 0.00 | 0.00 | 0.00 | 37 | 1008.7 |
| 20260901234403 | 97 | 218 | 0.0 | 0.0 | 0.00 | 0.00 | 0.00 | 37 | 1008.8 |
| 20260901233903 | 97 | 218 | 0.0 | 0.0 | 0.00 | 0.00 | 0.00 | 37 | 1008.8 |
| 20260901233403 | 97 | 218 | 0.0 | 0.0 | 0.00 | 0.00 | 0.00 | 37 | 1008.9 |
| 20260901232903 | 97 | 218 | 0.0 | 0.0 | 0.00 | 0.00 | 0.00 | 37 | 1008.9 |
| 20260901232404 | 98 | 218 | 0.0 | 0.0 | 0.00 | 0.00 | 0.00 | 37 | 1008.9 |
| 20260901231904 | 98 | 218 | 0.0 | 0.0 | 0.00 | 0.00 | 0.00 | 37 | 1009.1 |
| 20260901231403 | 97 | 218 | 0.0 | 0.0 | 0.00 | 0.00 | 0.00 | 37 | 1009.0 |
| 20260901230903 | 97 | 218 | 0.0 | 0.0 | 0.00 | 0.00 | 0.00 | 38 | 1009.1 |
| 20260901225904 | 96 | 219 | 0.0 | 3.0 | 0.00 | 0.00 | 0.00 | 38 | 1009.2 |
| 20260901225404 | 97 | 218 | 0.0 | 5.0 | 0.00 | 0.00 | 0.00 | 38 | 1009.2 |
| 20260901224903 | 97 | 219 | 0.0 | 0.0 | 0.00 | 0.00 | 0.00 | 38 | 1009.2 |
| 20260901224404 | 97 | 219 | 0.0 | 0.0 | 0.00 | 0.00 | 0.00 | 38 | 1009.3 |
| 20260901222403 | 97 | 222 | 0.0 | 0.0 | 0.00 | 0.00 | 0.00 | 37 | 1009.4 |
| 20260901221904 | 97 | 222 | 0.0 | 0.0 | 0.00 | 0.00 | 0.00 | 39 | 1009.4 |
| 20260901221403 | 96 | 222 | 0.0 | 1.0 | 0.00 | 0.00 | 0.00 | 39 | 1009.5 |
| 20260901220903 | 96 | 222 | 0.0 | 3.0 | 0.00 | 0.00 | 0.00 | 40 | 1009.7 |
| 20260901215904 | 96 | 190 | 0.0 | 0.0 | 0.00 | 0.00 | 0.00 | 40 | 1009.6 |
| 20260901215403 | 96 | 185 | 0.0 | 0.0 | 0.00 | 0.00 | 0.00 | 40 | 1009.8 |
| 20260901214903 | 96 | 183 | 0.0 | 0.0 | 0.00 | 0.00 | 0.00 | 40 | 1009.8 |
| 20260901214404 | 96 | 182 | 0.0 | 0.0 | 0.00 | 0.00 | 0.00 | 41 | 1009.8 |
| 20260901213904 | 96 | 182 | 0.0 | 1.0 | 0.00 | 0.00 | 0.00 | 40 | 1010.0 |
| 20260901212904 | 96 | 183 | 0.0 | 1.0 | 0.00 | 0.00 | 0.00 | 41 | 1010.2 |
| 20260901211904 | 95 | 246 | 0.0 | 0.0 | 0.00 | 0.00 | 0.00 | 41 | 1010.4 |
| 20260901211403 | 96 | 213 | 0.0 | 0.0 | 0.00 | 0.00 | 0.00 | 41 | 1010.4 |
| 20260901210903 | 96 | 213 | 0.0 | 5.0 | 0.00 | 0.00 | 0.00 | 41 | 1010.5 |
| 20260901210404 | 96 | 219 | 0.0 | 0.0 | 0.00 | 0.00 | 0.00 | 41 | 1010.5 |
| 20260901205904 | 96 | 219 | 0.0 | 0.0 | 0.00 | 0.00 | 0.00 | 41 | 1010.7 |
| 20260901205405 | 96 | 218 | 0.0 | 0.0 | 0.00 | 0.00 | 0.00 | 41 | 1010.8 |
| 20260901204905 | 95 | 218 | 0.0 | 0.0 | 0.00 | 0.00 | 0.00 | 42 | 1010.9 |
| 20260901204406 | 95 | 218 | 0.0 | 0.0 | 0.00 | 0.00 | 0.00 | 42 | 1011.0 |
| 20260901203905 | 95 | 218 | 0.0 | 0.0 | 0.00 | 0.00 | 0.00 | 42 | 1011.0 |
| 20260901203405 | 94 | 219 | 0.0 | 0.0 | 0.00 | 0.00 | 0.00 | 42 | 1011.1 |
| 20260901202905 | 94 | 218 | 0.0 | 3.0 | 0.00 | 0.00 | 0.00 | 43 | 1011.2 |
| 20260901201905 | 94 | 188 | 0.0 | 1.0 | 0.00 | 0.00 | 0.00 | 42 | 1011.4 |
| 20260901201406 | 94 | 186 | 0.0 | 0.0 | 0.00 | 0.00 | 0.00 | 42 | 1011.5 |
| 20260901200906 | 94 | 186 | 0.0 | 0.0 | 0.00 | 0.00 | 0.00 | 43 | 1011.5 |
| 20260901200406 | 94 | 186 | 1.0 | 5.0 | 0.00 | 0.00 | 0.00 | 43 | 1011.6 |
| 20260901195405 | 93 | 189 | 0.0 | 1.0 | 0.00 | 0.00 | 0.00 | 44 | 1011.7 |
| 20260901194405 | 93 | 188 | 0.0 | 2.0 | 0.00 | 0.00 | 0.00 | 44 | 1011.9 |
| 20260901193905 | 93 | 189 | 0.0 | 0.0 | 0.00 | 0.00 | 0.00 | 44 | 1011.9 |
| 20260901193406 | 93 | 189 | 0.0 | 0.0 | 0.00 | 0.00 | 0.00 | 43 | 1012.0 |
| 20260901192905 | 93 | 189 | 0.0 | 0.0 | 0.00 | 0.00 | 0.00 | 44 | 1012.1 |
| 20260901192405 | 92 | 189 | 0.0 | 0.0 | 0.00 | 0.01 | 0.00 | 44 | 1012.2 |
| 20260901191905 | 93 | 189 | 0.0 | 0.0 | 0.00 | 0.01 | 0.00 | 44 | 1012.3 |
| 20260901191405 | 93 | 189 | 0.0 | 2.0 | 0.00 | 0.01 | 0.00 | 45 | 1012.4 |
| 20260901190906 | 92 | 189 | 0.0 | 0.0 | 0.00 | 0.01 | 0.00 | 44 | 1012.5 |
| 20260901190405 | 92 | 189 | 0.0 | 0.0 | 0.00 | 0.01 | 0.00 | 46 | 1012.5 |
| 20260901185905 | 92 | 188 | 0.0 | 3.0 | 0.00 | 0.01 | 0.00 | 46 | 1012.6 |
| 20260901185406 | 91 | 189 | 0.0 | 0.0 | 0.00 | 0.01 | 0.00 | 45 | 1012.6 |
| 20260901184905 | 91 | 189 | 0.0 | 0.0 | 0.00 | 0.01 | 0.00 | 45 | 1012.6 |
| 20260901183905 | 91 | 189 | 1.0 | 3.0 | 0.00 | 0.01 | 0.00 | 45 | 1012.7 |
| 20260901183405 | 91 | 190 | 0.0 | 0.0 | 0.00 | 0.01 | 0.00 | 45 | 1012.9 |
| 20260901182905 | 91 | 189 | 0.0 | 0.0 | 0.00 | 0.01 | 0.00 | 46 | 1012.9 |
| 20260901182405 | 91 | 189 | 0.0 | 0.0 | 0.00 | 0.01 | 0.00 | 45 | 1012.9 |
| 20260901181405 | 91 | 189 | 0.0 | 0.0 | 0.00 | 0.01 | 0.00 | 46 | 1013.1 |
| 20260901180905 | 90 | 188 | 0.0 | 0.0 | 0.00 | 0.01 | 0.00 | 46 | 1013.2 |
| 20260901180405 | 90 | 188 | 0.0 | 0.0 | 0.00 | 0.01 | 0.00 | 46 | 1013.2 |
| 20260901175905 | 90 | 189 | 0.0 | 5.0 | 0.00 | 0.01 | 0.00 | 46 | 1013.2 |
| 20260901175405 | 90 | 189 | 0.0 | 0.0 | 0.00 | 0.01 | 0.00 | 46 | 1013.2 |
| 20260901174905 | 90 | 189 | 0.0 | 0.0 | 0.00 | 0.01 | 0.00 | 47 | 1013.2 |
| 20260901174405 | 90 | 189 | 0.0 | 2.0 | 0.00 | 0.01 | 0.00 | 47 | 1013.3 |
| 20260901173905 | 89 | 190 | 0.0 | 6.0 | 0.00 | 0.01 | 0.00 | 47 | 1013.3 |
| 20260901173406 | 89 | 193 | 0.0 | 3.0 | 0.00 | 0.01 | 0.00 | 47 | 1013.4 |
| 20260901172905 | 89 | 193 | 0.0 | 0.0 | 0.00 | 0.01 | 0.00 | 48 | 1013.5 |
| 20260901172405 | 89 | 192 | 0.0 | 3.0 | 0.00 | 0.01 | 0.00 | 49 | 1013.5 |
| 20260901171906 | 89 | 193 | 0.0 | 3.0 | 0.00 | 0.01 | 0.00 | 49 | 1013.5 |
| 20260901171406 | 88 | 192 | 0.0 | 3.0 | 0.00 | 0.01 | 0.00 | 48 | 1013.6 |
| 20260901170906 | 89 | 193 | 1.0 | 5.0 | 0.00 | 0.01 | 0.00 | 48 | 1013.5 |
| 20260901165905 | 88 | 205 | 0.0 | 2.0 | 0.00 | 0.01 | 0.00 | 50 | 1013.3 |
| 20260901165406 | 88 | 172 | 1.0 | 6.0 | 0.00 | 0.01 | 0.00 | 49 | 1013.3 |
| 20260901164905 | 88 | 171 | 0.0 | 2.0 | 0.00 | 0.04 | 0.00 | 49 | 1013.3 |
| 20260901164405 | 88 | 168 | 1.0 | 5.0 | 0.00 | 0.06 | 0.00 | 50 | 1013.2 |
| 20260901163905 | 88 | 158 | 1.0 | 6.0 | 0.00 | 0.07 | 0.00 | 49 | 1013.3 |
| 20260901163405 | 87 | 157 | 0.0 | 0.0 | 0.00 | 0.07 | 0.00 | 50 | 1013.3 |
| 20260901162905 | 87 | 157 | 0.0 | 0.0 | 0.00 | 0.07 | 0.00 | 50 | 1013.2 |
| 20260901162405 | 87 | 157 | 0.0 | 0.0 | 0.00 | 0.07 | 0.00 | 51 | 1013.2 |
| 20260901161905 | 87 | 158 | 0.0 | 0.0 | 0.00 | 0.07 | 0.00 | 51 | 1013.2 |
| 20260901161405 | 87 | 157 | 0.0 | 0.0 | 0.00 | 0.07 | 0.00 | 52 | 1013.1 |
| 20260901160905 | 86 | 158 | 0.0 | 0.0 | 0.00 | 0.07 | 0.00 | 52 | 1013.2 |
| 20260901160405 | 86 | 157 | 0.0 | 0.0 | 0.00 | 0.07 | 0.00 | 52 | 1013.1 |
| 20260901155905 | 86 | 157 | 0.0 | 1.0 | 0.00 | 0.07 | 0.00 | 52 | 1013.0 |
| 20260901154405 | 85 | 157 | 0.0 | 0.0 | 0.00 | 0.07 | 0.00 | 53 | 1013.0 |
| 20260901153905 | 85 | 158 | 0.0 | 1.0 | 0.00 | 0.08 | 0.00 | 53 | 1013.0 |
| 20260901152905 | 85 | 157 | 0.0 | 0.0 | 0.00 | 0.12 | 0.00 | 55 | 1012.8 |
| 20260901152405 | 84 | 158 | 0.0 | 0.0 | 0.00 | 0.12 | 0.00 | 57 | 1012.8 |
| 20260901151905 | 84 | 158 | 0.0 | 0.0 | 0.00 | 0.12 | 0.00 | 57 | 1012.8 |
| 20260901151405 | 84 | 158 | 0.0 | 0.0 | 0.00 | 0.12 | 0.00 | 59 | 1012.7 |
| 20260901150906 | 83 | 158 | 0.0 | 0.0 | 0.00 | 0.13 | 0.00 | 59 | 1012.8 |
| 20260901150405 | 83 | 157 | 0.0 | 0.0 | 0.00 | 0.15 | 0.00 | 60 | 1012.8 |
| 20260901145906 | 82 | 158 | 0.0 | 0.0 | 0.00 | 0.19 | 0.00 | 61 | 1012.8 |
| 20260901145405 | 82 | 157 | 0.0 | 0.0 | 0.00 | 0.19 | 0.00 | 62 | 1012.8 |
| 20260901144905 | 81 | 158 | 0.0 | 0.0 | 0.00 | 0.20 | 0.00 | 64 | 1013.0 |
| 20260901143905 | 80 | 158 | 0.0 | 0.0 | 0.00 | 0.20 | 0.00 | 66 | 1012.9 |
| 20260901143405 | 79 | 158 | 0.0 | 0.0 | 0.00 | 0.20 | 0.00 | 67 | 1013.0 |
| 20260901142905 | 79 | 158 | 0.0 | 0.0 | 0.00 | 0.21 | 0.00 | 67 | 1013.1 |
| 20260901142405 | 79 | 158 | 0.0 | 0.0 | 0.00 | 0.21 | 0.00 | 68 | 1013.1 |
| 20260901141905 | 78 | 158 | 0.0 | 0.0 | 0.00 | 0.21 | 0.00 | 68 | 1013.1 |